Paris / Charles De Gaulle, France

10:20 AM CEST on June 25, 2017 (GMT +0200)
Charles de Gaulle

Weather History for LFPG - February, 2014

Change the Weather History Date:

Tuesday, February 18, 2014

  Actual Average Record
Temperature  
Mean Temperature 44 °F -  
Max Temperature 48 °F 49 °F 59 °F (2007)
Min Temperature 39 °F 36 °F 23 °F (2003)
Degree Days  
Heating Degree Days 22    
Moisture  
Dew Point 37 °F    
Average Humidity 75    
Maximum Humidity 87    
Minimum Humidity 55    
Precipitation  
Precipitation 0.00 in - - ()
Sea Level Pressure  
Sea Level Pressure 29.91 in    
Wind  
Wind Speed 7 mph ()    
Max Wind Speed 12 mph    
Max Gust Speed -    
Visibility 9.1 miles    
Events Rain    
Averages and records for this station are not official NWS values.
T = Trace of Precipitation, MM = Missing Value Source: Averaged Metar Reports

Daily Weather History Graph

Daily Weather History Graph

Search for Another Location

Airport or City:

Trip Planner

Search our weather history database for the weather conditions in past years. The results will help you decide how hot, cold, wet, or windy it might be!

Date:

Astronomy

Feb. 18, 2014 Rise Set
Actual Time 7:53 AM CET 6:15 PM CET
Civil Twilight 7:20 AM CET 6:47 PM CET
Nautical Twilight 6:44 AM CET 7:24 PM CET
Astronomical Twilight 6:07 AM CET 8:01 PM CET
Moon 10:16 PM CET (2/18) 8:57 AM CET (2/18)
Length of Visible Light 11h 26m
Length of Day
10h 21m
Waning Gibbous, 89% of the Moon is Illuminated
Feb 18
Waning Gibbous
Feb 22
Last Quarter
Mar 1
New
Mar 8
First Quarter
Mar 16
Full

Hourly Weather History & Observations

Time (CET) Temp. Windchill Dew Point Humidity Pressure Visibility Wind Dir Wind Speed Gust Speed Precip Events Conditions
12:00 AM 43 °F - 37 °F 72% 29.94 in 6 mi SE 9.2 mph - -   Clear
12:00 AM 42.8 °F 37.5 °F 37.4 °F 81% 29.92 in - SE 9.2 mph - N/A   Clear
12:30 AM 42.8 °F 38.6 °F 37.4 °F 81% 29.92 in - SE 6.9 mph - N/A   Clear
1:00 AM 43 °F - 36 °F 69% 29.94 in 6 mi SSE 6.9 mph - -   Overcast
1:00 AM 42.8 °F 38.6 °F 35.6 °F 76% 29.92 in - SSE 6.9 mph - N/A   Clear
1:30 AM 42.8 °F 38.6 °F 37.4 °F 81% 29.92 in - SE 6.9 mph - N/A   Clear
2:00 AM 43 °F - 36 °F 69% 29.94 in 12 mi SSE 5.8 mph - -   Overcast
2:00 AM 42.8 °F 39.3 °F 35.6 °F 76% 29.92 in - SSE 5.8 mph - N/A   Clear
2:30 AM 42.8 °F - 35.6 °F 76% 29.92 in - Variable 2.3 mph - N/A   Clear
3:00 AM 42 °F - 35 °F 70% 29.94 in 12 mi East 8.1 mph - -   Overcast
3:00 AM 41.0 °F 35.8 °F 35.6 °F 81% 29.92 in - East 8.1 mph - N/A   Clear
3:30 AM 41.0 °F 37.1 °F 35.6 °F 81% 29.92 in - SE 5.8 mph - N/A   Clear
4:00 AM 41 °F - 36 °F 75% 29.94 in 12 mi SSE 5.8 mph - -   Overcast
4:00 AM 41.0 °F 37.1 °F 35.6 °F 81% 29.92 in - SSE 5.8 mph - N/A   Clear
4:30 AM 42.8 °F 41.1 °F 35.6 °F 76% 29.92 in - Variable 3.5 mph - N/A   Clear
5:00 AM 40 °F - 35 °F 75% 29.93 in 12 mi ESE 4.6 mph - -   Overcast
5:00 AM 41.0 °F 38.0 °F 35.6 °F 81% 29.89 in - ESE 4.6 mph - N/A   Clear
5:30 AM 41.0 °F 38.0 °F 35.6 °F 81% 29.92 in - SE 4.6 mph - N/A   Clear
6:00 AM 40 °F - 35 °F 75% 29.93 in 12 mi SE 3.5 mph - -   Overcast
6:00 AM 41.0 °F 39.0 °F 35.6 °F 81% 29.89 in - SE 3.5 mph - N/A   Clear
6:30 AM 41.0 °F 36.4 °F 35.6 °F 81% 29.89 in - SE 6.9 mph - N/A   Clear
7:00 AM 40 °F - 34 °F 73% 29.93 in 12 mi SSE 5.8 mph - -   Overcast
7:00 AM 41.0 °F 37.1 °F 33.8 °F 76% 29.89 in - SSE 5.8 mph - N/A   Clear
7:30 AM 39.2 °F 35.0 °F 33.8 °F 81% 29.89 in - SE 5.8 mph - N/A   Clear
8:00 AM 40 °F - 35 °F 74% 29.92 in 12 mi SSE 5.8 mph - -   Overcast
8:00 AM 39.2 °F 35.0 °F 33.8 °F 81% 29.89 in - SSE 5.8 mph - N/A   Clear
8:30 AM 39.2 °F 34.2 °F 33.8 °F 81% 29.92 in - SSE 6.9 mph - N/A   Clear
9:00 AM 40 °F - 34 °F 73% 29.94 in 12 mi SSE 5.8 mph - -   Overcast
9:00 AM 39.2 °F 35.0 °F 33.8 °F 81% 29.92 in - SSE 5.8 mph - N/A   Clear
9:30 AM 41.0 °F 37.1 °F 33.8 °F 76% 29.92 in - SSE 5.8 mph - N/A   Clear
10:00 AM 41 °F - 35 °F 71% 29.93 in 12 mi SSE 9.2 mph - -   Overcast
10:00 AM 41.0 °F 35.2 °F 35.6 °F 81% 29.89 in - SSE 9.2 mph - N/A   Clear
10:30 AM 41.0 °F 35.8 °F 35.6 °F 81% 29.92 in - South 8.1 mph - N/A   Clear
11:00 AM 42 °F - 35 °F 70% 29.93 in 12 mi South 8.1 mph - -   Overcast
11:00 AM 42.8 °F 38.0 °F 35.6 °F 76% 29.89 in - South 8.1 mph - N/A   Clear
11:30 AM 42.8 °F 37.0 °F 35.6 °F 76% 29.89 in - South 10.4 mph - N/A   Clear
12:00 PM 45 °F - 36 °F 61% 29.93 in 12 mi SSW 10.4 mph - -   Overcast
12:00 PM 44.6 °F 39.2 °F 35.6 °F 71% 29.92 in - SSW 10.4 mph - N/A   Clear
12:30 PM 46.4 °F 41.9 °F 35.6 °F 66% 29.89 in - South 9.2 mph - N/A   Clear
1:00 PM 47 °F - 36 °F 56% 29.91 in 12 mi South 8.1 mph - -   Overcast
1:00 PM 46.4 °F 42.4 °F 35.6 °F 66% 29.89 in - South 8.1 mph - N/A   Clear
1:30 PM 48.2 °F - 37.4 °F 66% 29.89 in - South 8.1 mph - N/A   Clear
2:00 PM 48 °F - 37 °F 55% 29.89 in 16 mi South 8.1 mph - -   Overcast
2:00 PM 48.2 °F - 35.6 °F 62% 29.86 in - South 8.1 mph - N/A   Clear
2:30 PM 48.2 °F - 37.4 °F 66% 29.86 in - Variable 8.1 mph - N/A   Clear
3:00 PM 48 °F - 37 °F 57% 29.90 in 12 mi SSW 8.1 mph - -   Overcast
3:00 PM 48.2 °F - 37.4 °F 66% 29.86 in - SSW 8.1 mph - N/A   Clear
3:30 PM 48.2 °F - 37.4 °F 66% 29.89 in 6.2 mi SSW 8.1 mph - N/A   Mostly Cloudy
4:00 PM 48 °F - 38 °F 60% 29.89 in 12 mi South 5.8 mph - -   Overcast
4:00 PM 48.2 °F - 39.2 °F 71% 29.86 in 6.2 mi South 6.9 mph - N/A   Mostly Cloudy
4:30 PM 48.2 °F - 39.2 °F 71% 29.89 in - SSW 5.8 mph - N/A   Clear
5:00 PM 47 °F - 40 °F 69% 29.89 in 9 mi SSE 6.9 mph - - Rain Light Rain
5:00 PM 48.2 °F - 41.0 °F 76% 29.86 in 6.2 mi SSE 5.8 mph - N/A Rain Light Rain
5:30 PM 48.2 °F - 41.0 °F 76% 29.89 in 6.2 mi South 9.2 mph - N/A   Mostly Cloudy
6:00 PM 47 °F - 40 °F 71% 29.90 in 12 mi South 11.5 mph - - Rain Light Rain
6:00 PM 48.2 °F - 41.0 °F 76% 29.89 in 6.2 mi South 11.5 mph - N/A   Mostly Cloudy
6:30 PM 46.4 °F 41.9 °F 41.0 °F 81% 29.89 in 6.2 mi South 9.2 mph - N/A   Mostly Cloudy
7:00 PM 47 °F - 41 °F 73% 29.91 in 12 mi South 9.2 mph - -   Partly Cloudy
7:00 PM 46.4 °F 42.4 °F 41.0 °F 81% 29.89 in 6.2 mi South 8.1 mph - N/A   Mostly Cloudy
7:30 PM 46.4 °F 41.9 °F 41.0 °F 81% 29.89 in 6.2 mi SSW 9.2 mph - N/A   Mostly Cloudy
8:00 PM 47 °F - 42 °F 77% 29.91 in 11 mi South 9.2 mph - -   Mostly Cloudy
8:00 PM 46.4 °F 41.9 °F 41.0 °F 81% 29.89 in 6.2 mi South 9.2 mph - N/A   Mostly Cloudy
8:30 PM 48.2 °F - 42.8 °F 82% 29.89 in 6.2 mi SSW 10.4 mph - N/A   Scattered Clouds
9:00 PM 47 °F - 42 °F 79% 29.92 in 9 mi SSW 10.4 mph - -   Mostly Cloudy
9:00 PM 48.2 °F - 42.8 °F 82% 29.89 in 6.2 mi SSW 10.4 mph - N/A   Scattered Clouds
9:30 PM 48.2 °F - 42.8 °F 82% 29.92 in 6.2 mi SSW 11.5 mph - N/A Rain Light Rain
10:00 PM 47 °F - 43 °F 82% 29.93 in 7 mi SSW 10.4 mph - - Rain Light Rain
10:00 PM 46.4 °F 41.1 °F 42.8 °F 87% 29.92 in 6.2 mi SSW 11.5 mph - N/A   Mostly Cloudy
10:30 PM 46.4 °F 41.5 °F 41.0 °F 81% 29.92 in 6.2 mi SW 10.4 mph - N/A   Partly Cloudy
11:00 PM 46 °F - 41 °F 77% 29.94 in 7 mi SW 8.1 mph - -   Mostly Cloudy
11:00 PM 46.4 °F 42.4 °F 41.0 °F 81% 29.92 in 6.2 mi SW 8.1 mph - N/A   Scattered Clouds
11:30 PM 44.6 °F 39.7 °F 41.0 °F 87% 29.92 in 6.2 mi SW 9.2 mph - N/A   Scattered Clouds